Weather Service Report


182 
ASUS42 KRAH 250410
RWRRAH
NORTH CAROLINA WEATHER ROUNDUP
NATIONAL WEATHER SERVICE RALEIGH NC
1200 AM EDT SAT OCT 25 2014

NOTE: "FAIR" INDICATES FEW OR NO CLOUDS BELOW 12,000 FEET WITH NO
SIGNIFICANT WEATHER AND/OR OBSTRUCTIONS TO VISIBILITY.

NCZ001-053-055-056-065-067-250500-
WESTERN NORTH CAROLINA
  
CITY           SKY/WX    TMP DP  RH WIND       PRES   REMARKS
ASHEVILLE      CLEAR     48  38  68 NW7       30.08R                  
JEFFERSON      CLEAR     50  32  50 W5        30.06S                  
MORGANTON      CLEAR     39  39 100 CALM      30.07F FOG              
HICKORY        CLEAR     49  45  86 W7        30.03S                  
RUTHERFORDTON  CLEAR     49  42  78 NW3       30.04F                  
MOUNT AIRY     CLEAR     46  38  73 CALM      30.04S                  
BOONE          CLEAR     43  36  74 CALM      30.08S                  
$$
 
NCZ021-022-025-041-071-084-088-250500-
CENTRAL NORTH CAROLINA
  
CITY           SKY/WX    TMP DP  RH WIND       PRES   REMARKS
CHARLOTTE      CLEAR     50  45  83 CALM      30.02F                  
GREENSBORO     PTCLDY    49  42  77 CALM      29.99F                  
WINSTON-SALEM  CLEAR     53  35  50 NW6       30.01F                  
RALEIGH-DURHAM PTCLDY    47  45  93 CALM      29.99F                  
FORT BRAGG     PTCLDY    51  48  87 W2        29.99F                  
FAYETTEVILLE   PTCLDY    54  49  83 W3        29.99F                  
BURLINGTON     CLEAR     46  43  89 CALM      30.00S                  
LAURINBURG     PTCLDY    49  48  97 CALM      30.01F FOG              
$$
 
NCZ011-015-027-028-043-044-047-080-103-250500-
NORTHEASTERN NORTH CAROLINA
  
CITY           SKY/WX    TMP DP  RH WIND       PRES   REMARKS
ROCKY MT-WILSO CLEAR     46  44  93 CALM      29.98F                  
GREENVILLE     LGT RAIN  48  48 100 CALM      30.00S VSB 3/4          
WASHINGTON     CLEAR     49  48  96 CALM      29.98F                  
ELIZABETH CITY FAIR      51  44  77 W5        29.96F                  
MANTEO         CLEAR     57  54  88 CALM      29.96F                  
CAPE HATTERAS  CLEAR     59  55  87 NW5       29.96F                  
$$
 
NCZ078-087-090-091-093-098-101-250500-
SOUTHEASTERN NORTH CAROLINA
  
CITY           SKY/WX    TMP DP  RH WIND       PRES   REMARKS
LUMBERTON      MOCLDY    49  46  90 CALM      30.00F                  
GOLDSBORO      PTCLDY    52  50  93 CALM      29.97S FOG              
KINSTON        PTCLDY    47  47  98 CALM      29.99S                  
KENANSVILLE    PTCLDY    45  45  99 CALM      30.00S                  
NEW BERN       CLEAR     52  48  86 CALM      29.99F                  
CHERRY POINT   CLEAR     50  47  89 CALM      29.99F                  
BEAUFORT       CLEAR     57  51  80 NW8       29.98S                  
JACKSONVILLE   PTCLDY    51  49  92 W3        29.98S                  
WILMINGTON     PTCLDY    52  50  93 CALM      30.00R                  
$$


Return to Home page


Western Regional Climate Center, wrcc@dri.edu